Weather History for KBKL - January, 2014

Change the Weather History Date:

Saturday, January 18, 2014

  Actual Average (KCLE) Record (KCLE)
Temperature  
Mean Temperature 16 °F 28 °F  
Max Temperature 19 °F 34 °F 64 °F (1996)
Min Temperature 12 °F 21 °F -14 °F (1994)
Degree Days  
Heating Degree Days 50 37  
Month to date heating degree days 665  
Since 1 July heating degree days 2772  
Cooling Degree Days 0 0  
Month to date cooling degree days 0  
Year to date cooling degree days 0  
Moisture  
Dew Point 9 °F    
Average Humidity 71    
Maximum Humidity 86    
Minimum Humidity 62    
Precipitation  
Precipitation 0.00 in 0.08 in - ()
Month to date precipitation 1.67  
Year to date precipitation 1.67  
Snow  
Snow 0.00 in 0.70 in - ()
Month to date snowfall 10.8  
Since 1 July snowfall 29.4  
Snow Depth -    
Sea Level Pressure  
Sea Level Pressure 29.95 in    
Wind  
Wind Speed 14 mph (SSW)    
Max Wind Speed 20 mph    
Max Gust Speed 26 mph    
Visibility 9 miles    
Events Snow    
T = Trace of Precipitation, MM = Missing Value Source: NWS Daily Summary

Daily Weather History Graph

Daily Weather History Graph

Search for Another Location

Airport or City:

Trip Planner

Search our weather history database for the weather conditions in past years. The results will help you decide how hot, cold, wet, or windy it might be!

Date:

Astronomy

Jan. 18, 2014 Rise Set
Actual Time 7:49 AM EST 5:25 PM EST
Civil Twilight 7:19 AM EST 5:55 PM EST
Nautical Twilight 6:45 AM EST 6:29 PM EST
Astronomical Twilight 6:11 AM EST 7:02 PM EST
Moon 8:08 PM EST (1/18) 8:46 AM EST (1/18)
Length of Visible Light 10h 36m
Length of Day
9h 35m
Waning Gibbous, 94% of the Moon is Illuminated
Jan 18
Waning Gibbous
Jan 24
Last Quarter
Jan 30
New
Feb 6
First Quarter
Feb 14
Full

Hourly Weather History & Observations

Time (EST) Temp. Windchill Dew Point Humidity Pressure Visibility Wind Dir Wind Speed Gust Speed Precip Events Conditions
12:53 AM 14.0 °F -3.0 °F 6.1 °F 71% 29.98 in 9.0 mi SSW 18.4 mph 26.5 mph 0.00 in   Overcast
1:53 AM 12.9 °F -4.9 °F 5.0 °F 71% 29.98 in 9.0 mi SW 19.6 mph 25.3 mph N/A   Overcast
2:53 AM 12.0 °F -5.1 °F 5.0 °F 73% 29.98 in 10.0 mi SW 17.3 mph 24.2 mph N/A   Overcast
3:53 AM 12.0 °F -4.5 °F 5.0 °F 73% 29.98 in 10.0 mi SSW 16.1 mph 21.9 mph N/A   Overcast
4:26 AM 12.2 °F -1.8 °F 5.0 °F 73% 29.95 in 10.0 mi SSW 11.5 mph - 0.00 in   Overcast
4:53 AM 12.0 °F -4.5 °F 5.0 °F 73% 29.98 in 10.0 mi SW 16.1 mph - 0.00 in   Overcast
5:08 AM 12.2 °F -4.3 °F 6.8 °F 79% 29.96 in 10.0 mi SW 16.1 mph - N/A   Overcast
5:53 AM 12.0 °F -6.0 °F 6.1 °F 77% 29.99 in 10.0 mi SW 19.6 mph - N/A   Overcast
6:53 AM 12.9 °F -3.4 °F 6.1 °F 74% 30.00 in 10.0 mi SW 16.1 mph - N/A   Overcast
7:53 AM 12.9 °F -1.6 °F 7.0 °F 77% 30.00 in 10.0 mi SW 12.7 mph - N/A   Overcast
8:53 AM 12.9 °F -0.9 °F 6.1 °F 74% 30.01 in 10.0 mi SW 11.5 mph - N/A   Clear
9:53 AM 15.1 °F 2.5 °F 8.1 °F 74% 30.02 in 10.0 mi SSW 10.4 mph - N/A   Clear
10:53 AM 16.0 °F 2.3 °F 8.1 °F 71% 30.03 in 10.0 mi SSW 12.7 mph - N/A   Partly Cloudy
11:26 AM 17.6 °F 4.3 °F 8.6 °F 68% 29.99 in 10.0 mi SSW 12.7 mph - N/A   Mostly Cloudy
11:53 AM 18.0 °F 3.1 °F 9.0 °F 68% 30.02 in 10.0 mi SW 16.1 mph - N/A   Overcast
12:53 PM 19.0 °F 6.1 °F 9.0 °F 65% 29.99 in 10.0 mi SW 12.7 mph - N/A   Mostly Cloudy
1:53 PM 19.0 °F 5.6 °F 9.0 °F 65% 29.97 in 10.0 mi SSW 13.8 mph - N/A   Mostly Cloudy
2:00 PM 19.4 °F 7.9 °F 8.6 °F 63% 29.93 in 10.0 mi South 10.4 mph - N/A   Scattered Clouds
2:12 PM 19.4 °F 7.2 °F 8.6 °F 63% 29.93 in 10.0 mi South 11.5 mph - N/A   Mostly Cloudy
2:53 PM 19.9 °F 8.6 °F 9.0 °F 62% 29.97 in 10.0 mi SSW 10.4 mph - N/A   Mostly Cloudy
3:00 PM 19.4 °F 6.6 °F 8.6 °F 63% 29.93 in 10.0 mi South 12.7 mph - N/A   Mostly Cloudy
3:53 PM 19.9 °F 7.9 °F 9.0 °F 62% 29.96 in 10.0 mi SSW 11.5 mph - N/A   Mostly Cloudy
4:53 PM 19.9 °F 8.6 °F 9.0 °F 62% 29.95 in 10.0 mi SSE 10.4 mph - N/A   Overcast
5:53 PM 19.9 °F 10.1 °F 9.0 °F 62% 29.95 in 10.0 mi South 8.1 mph - N/A   Overcast
6:53 PM 19.9 °F 9.3 °F 10.0 °F 65% 29.95 in 10.0 mi South 9.2 mph - N/A   Clear
7:53 PM 19.9 °F 7.9 °F 10.9 °F 68% 29.93 in 10.0 mi South 11.5 mph - N/A   Scattered Clouds
8:53 PM 19.9 °F 10.1 °F 10.9 °F 68% 29.92 in 10.0 mi South 8.1 mph - N/A   Overcast
9:53 PM 19.9 °F 12.1 °F 14.0 °F 78% 29.91 in 3.0 mi South 5.8 mph - 0.00 in Snow Light Snow
9:55 PM 19.4 °F 8.6 °F 14.0 °F 80% 29.88 in 2.5 mi South 9.2 mph - 0.00 in Snow Light Snow
10:02 PM 19.4 °F 10.4 °F 14.0 °F 80% 29.88 in 3.0 mi South 6.9 mph - 0.00 in Snow Light Snow
10:53 PM 19.0 °F 9.0 °F 15.1 °F 85% 29.88 in 3.0 mi SSE 8.1 mph - 0.00 in Snow Light Snow
11:24 PM 19.4 °F 9.5 °F 15.8 °F 86% 29.83 in 5.0 mi SSE 8.1 mph - 0.00 in Snow Light Snow
11:53 PM 19.0 °F 9.0 °F 15.1 °F 85% 29.84 in 5.0 mi SSE 8.1 mph - 0.00 in Snow Light Snow